Other Public Products
Issued by NWS Grand Forks, ND

Home | Current Version | Previous Version | Text Only | Print | Product List | Glossary Off
Versions: 1 2 3 4 5 6 7 8 9 10 11 12 13 14 15 16 17 18 19 20 21 22 23 24 25 26 27 28 29 30 31 32 33 34 35 36 37 38 39 40 41 42 43 44 45 46 47 48 49 50

000
FPUS83 KFGF 270310
OPUFGF
PRAIRIE TO PINES WEATHER ROUNDUP
NATIONAL WEATHER SERVICE EASTERN NORTH DAKOTA/GRAND FORKS ND
900 PM CST FRI DEC 26 2014

 **SATELLITE DATA USED TO AUGMENT SKY COVER AT AUTOMATED STATIONS**
 *****  WEATHER ACROSS EASTERN NORTH DAKOTA  *****

CITY           SKY/WX    TMP DP  RH WIND       PRES   REMARKS
GRAND FORKS    FLURRIES   7   4  87 N6        30.25S WCI  -3
GRAND FORKS AF CLOUDY     3   2  97 NW5       30.25S WCI  -6
GRAND CITY NWS   N/A      7 N/A N/A N9          N/A  WCI  -7
BUXTON         NOT AVBL
DEVILS LAKE    PTCLDY     0  -6  78 W3        30.17F
FARGO          MOCLDY    11   4  73 N10       30.24S WCI  -3
WAHPETON ARPT  CLOUDY    19  14  79 N15       30.21S WCI   5
$$

 *****  WEATHER ACROSS CENTRAL AND WESTERN NORTH DAKOTA  *****

CITY           SKY/WX    TMP DP  RH WIND       PRES   REMARKS
JAMESTOWN      PTCLDY     4   0  83 NW5       30.18F WCI  -5
BISMARCK       PTCLDY     3   0  87 CALM      30.20S
MINOT          CLOUDY     9   3  77 SE3       30.15F
MINOT AFB      CLOUDY     7   4  86 S5        30.16F WCI  -1
GARRISON         N/A     10   6  84 NW5       30.14F WCI   2
WILLISTON      CLOUDY    20  15  81 CALM      30.12F
DICKINSON      PTCLDY     9   5  84 S7        30.09F WCI  -2
HETTINGER      CLEAR      6   2  83 CALM      30.13R
$$

 *****  OTHER OBSERVATIONS NORTHEAST NORTH DAKOTA  *****

CITY           SKY/WX    TMP DP  RH WIND       PRES   REMARKS
WALHALLA         N/A      0  -2  92 NW6       30.25S WCI -12
LANGDON        FAIR      -8 N/A N/A CALM      30.16F
CAVALIER       FLURRIES   5   1  85 NW5       30.24F WCI  -4
GRAFTON        NOT AVBL
CANDO          FAIR       0  -4  85 CALM      30.19F
FORT TOTTEN    NOT AVBL
ROLLA          FAIR      -6  -9  84 CALM      30.15F
RUGBY          MOCLDY     0  -2  92 CALM      30.17F
 ***** THE ABOVE OBSERVATIONS ARE NON NWS ARE NOT QUALITY
        CONTROLLED AND MAY MIS-REPORT RAIN FOR SNOW...
$$

 *****  OTHER OBSERVATIONS SOUTHEAST NORTH DAKOTA *****

CITY           SKY/WX    TMP DP  RH WIND       PRES   REMARKS
COOPERSTOWN    NOT AVBL
VALLEY CITY    FAIR       5   5 100 NW7       30.19F WCI  -7
OAKES            N/A      7   7 100 NW7       30.21F WCI  -5
GWINNER        CLEAR     10   5  79 N9        30.22F WCI  -2
SHEYENNE NWR     N/A      9   3  77 N8        29.95  WCI  -3
BUFFALO        NOT AVBL
WYNDMERE         N/A     12   9  85 NW12        N/A  WCI  -2
 ***** THE ABOVE OBSERVATIONS ARE NON NWS ARE NOT QUALITY
       CONTROLLED AND MAY MIS-REPORT RAIN FOR SNOW...
$$

  *****  WEATHER ACROSS NORTHERN MINNESOTA  *****

CITY           SKY/WX    TMP DP  RH WIND       PRES   REMARKS
FLAG ISLAND    CLOUDY    10   7  85 N7        30.17F WCI   0
WARROAD        CLOUDY    14   7  73 NW6       30.18S WCI   5
ROSEAU         CLOUDY    14   9  79 NW10      30.19S WCI   1
HALLOCK        FLURRIES   9   7  92 N9        30.23S WCI  -5
THF RVR FALLS  CLOUDY    10   9  92 NW7       30.20S WCI   0
HALSTAD          N/A      8   1  73 NW10        N/A  WCI  -6
FOSSTON        CLOUDY    12  10  92 NW8       30.18S WCI   1
BAUDETTE       CLOUDY    15   9  76 N9        30.16R WCI   3
WASKISH        CLOUDY    19  12  73 W8        30.15S WCI   9
CROOKSTON      FLURRIES  10   7  85 N8        30.24S WCI  -1
$$
  *****  WEATHER ACROSS CENTRAL AND WEST MINNESOTA  *****

CITY           SKY/WX    TMP DP  RH WIND       PRES   REMARKS
BEMIDJI        CLOUDY    19  15  82 NW7       30.14S WCI  10
PARK RAPIDS    CLOUDY    22  15  75 N7        30.12F WCI  13
WADENA         CLOUDY    21  16  79 N8        30.13S WCI  12
DETROIT LAKES  MIX PCPN  19  16  86 NW9       30.17S WCI   9
MOORHEAD       MOCLDY    12  10  92 N12       30.23F WCI  -2
FERGUS FALLS   CLOUDY    19  12  73 N12G18    30.21S WCI   7
ELBOW LAKE     CLOUDY    21  17  86 N10       30.15F WCI  10
MORRIS MN      MOCLDY    23  19  86 N13       30.14S WCI  11
STAPLES        CLOUDY    21  16  79 N5        30.13S WCI  15
WHEATON        CLOUDY    19  16  86 N14       30.20S WCI   6
$$
  *****  WEATHER ELSEWHERE ACROSS MINNESOTA  *****

CITY           SKY/WX    TMP DP  RH WIND       PRES   REMARKS
DULUTH         CLOUDY    26  18  71 N6        30.07F WCI  19
INTRNTL FALLS  FLURRIES  18  12  77 NW5       30.14S WCI  11
ELY            FLURRIES  21  18  86 NW8       30.10R WCI  12
CLOQUET        CLOUDY    27  18  69 N8        30.09S WCI  18
BRAINERD       CLOUDY    22  16  78 N9        30.13S WCI  12
HIBBING        CLOUDY    23  15  71 N7        30.11R WCI  15
ALEXANDRIA     CLOUDY    23  18  81 N12       30.12F WCI  12
SAINT CLOUD    CLOUDY    30  21  69 N5        30.10F
MINNEAPOLIS    LGT SNOW  29  26  89 N10       30.07F FOG     WCI  20
$$

  *****  WEATHER ACROSS SOUTH DAKOTA  *****

CITY           SKY/WX    TMP DP  RH WIND       PRES   REMARKS
SIOUX FALLS    LGT SNOW  23  20  88 N12       30.08S FOG     WCI  12
BROOKINGS      NOT AVBL
WATERTOWN      LGT SNOW  19  16  88 N9        30.10F FOG     WCI   8
HURON          CLOUDY    19  15  84 N15       30.17R WCI   5
SISSETON         N/A     19  16  88 N14       30.17F WCI   6
ABERDEEN       CLOUDY    14   9  80 N15       30.21S WCI  -1
MITCHELL       LGT SNOW  22  20  92 N15       30.16R FOG     WCI   9
PIERRE         PTCLDY    12   8  84 NE6       30.17S WCI   3
MOBRIDGE       MOCLDY     8   5  87 CALM      30.16R
RAPID CITY     CLOUDY    17  13  84 CALM      30.12S
$$

  *****  SOME WEATHER IN NEARBY STATES *****

CITY           SKY/WX    TMP DP  RH WIND       PRES   REMARKS
GLASGOW MT     CLEAR     20  14  77 NW12      30.12R WCI   8
GREAT FALLS MT CLEAR     13   8  81 S12       30.07S WCI  -1
CHEYENNE WY    LGT SNOW  12   7  80 NW6       29.98R WCI   3
SCOTTSBLUFF NE CLOUDY    16  13  88 W5        30.09R WCI   9
OMAHA NE       FRZ DRZL  32  31  96 N8        30.03R FOG     WCI  25
DES MOINES IA  CLOUDY    35  32  88 N3        29.98S
DAVENPORT IA   CLOUDY    42  36  79 E6        29.98S
CHICAGO IL     CLOUDY    47  41  80 S7        30.03R
EAU CLAIRE WI  CLOUDY    32  28  85 N7        30.03F
LA CROSSE WI   LGT SNOW  33  32  96 NW6       30.02S FOG
$$

  *****  SOME NATIONAL WEATHER *****

CITY           SKY/WX    TMP DP  RH WIND       PRES   REMARKS
LA GUARDIA NY  CLEAR     46  29  51 W12       30.22S
RALEIGH NC     MOCLDY    40  34  79 CALM      30.32S
ATLANTA GA     PTCLDY    47  36  65 S5        30.30S
NEW ORLEANS LA CLOUDY    63  56  78 E10       30.13F
OKLAHOMA CITY  MOCLDY    39  31  72 N22       30.06R
ALBUQUERQUE NM PTCLDY    30  10  43 VRB3      30.03R
SALT LAKE CITY MOCLDY    25  17  72 SW3       30.17R
LOS ANGELES CA CLEAR     56  16  20 N6        30.13R
BOISE ID       CLEAR     29  22  75 NW3       30.26R
SEATTLE WA     CLOUDY    41  37  86 CALM      30.35F
$$

*** WEATHER ACROSS MANITOBA...SASKATCHEWAN AND ONTARIO ***
                ***ONTARIO***

CITY           SKY/WX    TMP DP  RH WIND       PRES   REMARKS
GERALDTON      CLOUDY    19  18  93 NW3       30.06
THUNDER BAY    CLOUDY    28  19  69 NW7       30.11R WCI  21
SIOUX LOOKOUT  NOT AVBL
TORONTO        CLEAR     37  34  87 W6        30.12R
BIG TROUT LK   CLEAR     -8 -11  84 W6        30.11S WCI -21
PICKLE LAKE    NOT AVBL
DRYDEN         CLOUDY     3   1  92 NW7       30.14F WCI  -9
KENORA         FLURRIES   5   1  85 NW7       30.16F WCI  -7
$$
                *** MANITOBA***

CITY           SKY/WX    TMP DP  RH WIND       PRES   REMARKS
BRANDON        CLEAR    -13 -17  84 W7        30.19F WCI -29
DAUPHIN        CLOUDY    -8 -15  71 W10       30.17S WCI -26
ISLAND LAKE    PTCLDY   -11 -17  77 W8        30.15R WCI -28
PILOT MOUND      N/A    -15 -18  84 S3          N/A
THE PAS        PTCLDY    -8 -11  84 SW2       30.10F
THOMPSON       CLEAR    -27 -33  75 CALM      30.08F
WINNIPEG       FLURRIES   1  -2  85 W8        30.25F WCI -12
CHURCHILL      FLURRIES -13 -17  84 SW7       30.00F WCI -29
GILLAM         CRYSTALS -20 -27  69 W8        30.07F WCI -39
$$
                ***SASKATCHEWAN***

CITY           SKY/WX    TMP DP  RH WIND       PRES   REMARKS
ESTEVAN        CLOUDY    12   9  85 SE5       30.10F WCI   4
KINDERSLEY     PTCLDY     1  -2  85 S9        30.02F WCI -14
LLOYDMINSTER   FLURRIES  10   7  85 W5        30.00S WCI   2
PRINCE ALBERT  FLURRIES   5   1  85 CALM      30.06S
REGINA         FLURRIES   9   7  92 S5        30.08F WCI   0
YORKTON        CLOUDY    -6  -9  84 S7        30.09  WCI -20



USA.gov is the U.S. government's official web portal to all federal, state and local government web resources and services.